Date,TemperatureHighF,TemperatureAvgF,TemperatureLowF,DewpointHighF,DewpointAvgF,DewpointLowF,HumidityHigh,HumidityAvg,HumidityLow,PressureMaxIn,PressureMinIn,WindSpeedMaxMPH,WindSpeedAvgMPH,GustSpeedMaxMPH,PrecipitationSumIn
2013-1-1,24,11,3,10,3,-2,80,71,53,30.26,30.13,8,1,8,0.00
2013-1-2,32,21,7,18,12,-1,77,69,52,30.18,30.05,11,1,11,0.00
2013-1-3,27,23,14,20,17,8,81,77,73,30.24,30.05,11,3,11,0.00
2013-1-4,34,21,11,21,14,5,81,72,58,30.21,30.06,15,3,15,0.00
2013-1-5,35,27,13,31,22,8,88,80,71,30.23,29.88,15,3,15,0.00
2013-1-6,36,27,17,30,21,12,86,77,64,30.31,29.87,13,3,13,0.00
2013-1-7,40,28,13,26,20,8,84,72,56,30.30,30.04,21,4,21,0.00
2013-1-8,43,34,22,32,26,17,84,74,62,30.14,29.96,17,3,17,0.00
2013-1-9,43,36,25,31,26,19,79,68,53,30.48,29.93,19,4,19,0.00
2013-1-10,42,31,20,33,25,15,88,80,68,30.50,29.88,11,1,11,0.00
2013-1-11,52,43,36,46,40,33,90,88,81,29.88,29.62,19,3,19,0.00
2013-1-12,52,39,26,46,31,20,82,75,68,29.99,29.63,20,5,20,0.00
2013-1-13,26,20,14,21,13,5,82,74,68,30.18,29.87,13,2,13,0.00
2013-1-14,32,17,5,15,8,-11,77,67,47,30.44,30.18,9,0,9,0.00
2013-1-15,34,20,10,19,11,4,82,68,49,30.41,30.08,12,1,12,0.00
2013-1-16,34,26,15,28,18,8,79,71,58,30.08,29.77,24,3,24,0.00
2013-1-17,32,21,11,22,10,4,75,61,44,30.38,30.04,11,1,11,0.00
2013-1-18,43,29,11,30,21,4,78,71,61,30.40,29.83,28,6,28,0.00
2013-1-19,46,38,20,35,28,6,76,67,42,29.90,29.66,20,6,20,0.00
2013-1-20,21,13,8,6,0,-2,64,58,46,30.28,29.90,18,4,18,0.00
2013-1-21,11,6,-1,1,-5,-11,69,60,51,30.26,30.11,14,2,14,0.00
2013-1-22,13,2,-6,-2,-9,-15,66,61,50,30.37,30.25,9,1,9,0.00
2013-1-23,17,11,2,11,3,-7,77,68,61,30.37,30.09,11,2,11,0.00
2013-1-24,21,11,0,10,1,-8,70,63,53,30.64,30.35,11,0,11,0.00
2013-1-25,26,20,16,16,11,6,77,69,58,30.36,29.95,16,1,16,0.00
2013-1-26,33,19,8,15,8,1,77,64,45,30.38,30.16,6,0,6,0.00
2013-1-27,33,27,23,30,21,12,87,76,63,30.34,29.87,12,1,12,0.00
2013-1-28,47,38,32,38,33,28,89,84,69,29.95,29.77,9,1,9,0.00
2013-1-29,59,46,35,55,42,32,90,89,86,29.82,29.47,13,2,13,0.00
2013-1-30,35,28,16,32,24,11,89,86,80,29.59,29.27,15,2,15,0.00
2013-1-31,16,12,3,12,5,-4,81,74,67,30.12,29.59,15,5,15,0.00
2013-2-1,8,3,-4,3,-5,-10,78,70,60,30.31,30.11,18,2,18,0.00
2013-2-2,22,10,1,9,3,-6,81,72,56,30.13,30.00,9,0,9,0.00
2013-2-3,28,14,1,14,6,-6,81,72,53,30.03,29.92,11,1,11,0.00
2013-2-4,29,16,6,19,9,-1,82,75,63,30.01,29.91,8,0,8,0.00
2013-2-5,27,18,0,22,12,-6,83,79,74,30.08,29.77,14,2,14,0.00
2013-2-6,33,18,0,27,12,-6,80,76,73,30.18,30.07,9,1,9,0.00
2013-2-7,34,33,31,30,28,26,88,84,80,30.10,29.89,8,0,8,0.00
2013-2-8,26,20,9,21,15,4,86,82,79,30.39,30.12,0,0,0,0.00
2013-2-9,30,18,4,25,14,0,86,82,79,30.39,30.06,7,0,7,0.00
2013-2-10,44,32,15,41,28,11,90,87,76,30.07,29.43,18,3,18,0.00
2013-2-11,41,32,26,34,25,19,81,76,72,30.00,29.44,28,6,28,0.00
2013-2-12,33,24,16,21,17,11,83,74,60,30.09,29.88,12,2,12,0.00
2013-2-13,43,29,13,31,22,9,86,76,62,29.88,29.70,10,1,10,0.00
2013-2-14,36,33,27,32,27,19,84,78,69,29.98,29.59,15,2,15,0.00
2013-2-15,35,23,14,23,12,4,80,64,44,30.19,29.98,10,1,10,0.00
2013-2-16,25,12,3,8,2,-5,73,63,48,30.20,30.09,9,0,9,0.00
2013-2-17,32,15,-1,13,4,-8,76,61,43,30.23,29.98,11,0,11,0.00
2013-2-18,47,36,24,38,27,13,87,72,61,29.98,29.44,13,2,13,0.00
2013-2-19,30,15,8,27,8,0,86,76,68,30.18,29.52,0,0,0,0.00
2013-2-20,31,14,6,16,4,-2,74,67,52,30.39,30.18,12,0,12,0.00
2013-2-21,26,20,8,22,14,1,82,79,74,30.43,30.05,22,2,22,0.00
2013-2-22,32,28,24,27,24,21,87,84,80,30.05,29.77,15,2,15,0.00
2013-2-23,32,25,20,22,18,13,84,76,63,29.94,29.85,18,3,18,0.00
2013-2-24,43,26,11,27,17,5,84,69,51,30.14,29.94,11,1,11,0.00
2013-2-25,49,28,12,31,19,6,82,69,48,30.19,30.03,7,0,7,0.00
2013-2-26,35,32,28,29,27,22,88,80,68,30.03,29.59,22,4,22,0.00
2013-2-27,37,32,29,32,28,26,88,86,81,29.74,29.57,0,0,0,0.00
2013-2-28,36,31,25,29,26,19,86,80,73,30.11,29.74,11,2,11,0.00
2013-3-1,26,24,22,20,18,16,80,77,74,30.23,30.09,11,3,11,0.00
2013-3-2,37,21,6,20,12,-2,76,67,50,30.24,30.13,9,1,9,0.00
2013-3-3,42,17,-1,21,5,-7,79,62,39,30.18,30.04,7,0,7,0.00
2013-3-4,35,21,5,24,12,-3,76,70,60,30.15,30.04,16,2,16,0.00
2013-3-5,31,29,26,27,24,22,86,82,75,30.03,29.87,14,2,17,0.00
2013-3-6,36,30,26,27,24,21,84,78,68,30.31,30.09,9,3,11,0.00
2013-3-7,43,30,20,26,19,11,77,65,49,30.44,30.32,6,0,6,0.00
2013-3-8,48,25,9,30,16,3,82,70,49,30.49,30.32,12,1,12,0.00
2013-3-9,42,34,25,32,27,20,83,75,64,30.29,29.85,12,1,15,0.00
2013-3-10,44,39,35,40,35,30,89,87,84,29.82,29.62,19,0,19,0.00
2013-3-11,39,34,31,36,31,27,90,89,86,29.73,29.54,10,1,11,0.00
2013-3-12,34,30,26,27,24,20,86,77,61,29.97,29.83,14,3,16,0.00
2013-3-13,38,28,19,17,13,8,78,55,42,30.31,30.16,12,2,12,0.00
2013-3-14,40,27,15,27,18,7,82,68,52,30.32,30.06,11,0,11,0.00
2013-3-15,39,32,27,33,27,23,86,83,77,30.07,29.80,10,0,10,0.00
2013-3-16,38,30,26,27,23,18,85,76,58,30.13,29.79,8,0,8,0.00
2013-3-17,37,27,20,22,17,11,78,67,53,30.24,30.02,13,1,13,0.00
2013-3-18,35,29,19,30,23,11,85,79,71,30.02,29.59,11,1,11,0.00
2013-3-19,33,21,13,15,10,6,74,62,46,30.04,29.73,21,4,21,0.00
2013-3-20,23,16,10,8,4,0,63,59,50,30.09,30.00,16,2,16,0.00
2013-3-21,36,20,9,17,8,0,69,60,45,30.05,29.97,10,1,10,0.00
2013-3-22,43,24,10,22,12,4,77,60,42,30.08,29.97,6,0,6,0.00
2013-3-23,44,29,16,25,19,10,78,66,44,30.15,30.04,11,0,11,0.00
2013-3-24,36,32,30,27,24,21,77,73,69,30.06,29.75,12,2,12,0.00
2013-3-25,36,31,28,26,23,20,79,73,64,30.09,29.78,9,2,9,0.00
2013-3-26,46,35,30,30,25,23,76,67,53,30.24,30.08,9,1,9,0.00
2013-3-27,42,35,25,27,22,16,70,59,47,30.31,30.24,7,0,7,0.00
2013-3-28,51,34,22,28,21,15,79,59,38,30.35,30.24,7,0,7,0.00
2013-3-29,55,37,23,29,22,16,79,56,34,30.32,30.21,7,0,7,0.00
2013-3-30,57,41,24,39,30,17,81,64,49,30.25,29.81,19,2,19,0.00
2013-3-31,52,42,32,40,33,21,85,72,54,29.90,29.69,19,3,19,0.00
2013-4-1,39,31,25,21,17,13,71,56,41,30.18,29.89,15,2,15,0.00
2013-4-2,43,32,22,19,15,12,69,52,36,30.31,30.18,13,1,13,0.00
2013-4-3,48,33,20,21,16,11,73,52,31,30.45,30.29,11,1,11,0.00
2013-4-4,59,41,23,34,25,14,72,54,39,30.30,29.93,19,2,19,0.00
2013-4-5,50,38,27,30,25,19,77,60,46,30.24,30.02,11,0,11,0.00
2013-4-6,63,48,34,47,34,22,81,61,45,30.16,29.55,23,4,23,0.00
2013-4-7,59,45,35,47,36,28,84,69,48,29.98,29.56,13,3,13,0.00
2013-4-8,56,43,35,47,37,28,88,81,70,30.00,29.57,11,2,11,0.00
2013-4-9,40,38,37,37,35,34,89,88,84,30.03,29.88,16,2,16,0.00
2013-4-10,39,36,34,36,33,31,89,89,88,30.10,29.84,18,3,18,0.00
2013-4-11,38,37,35,35,34,32,90,89,88,29.92,29.57,20,6,24,0.00
2013-4-12,42,37,35,38,34,28,90,86,77,29.80,29.52,12,2,12,0.00
2013-4-13,39,36,30,29,27,23,81,72,62,30.00,29.80,12,2,12,0.00
2013-4-14,52,39,30,46,33,24,87,80,67,30.02,29.60,20,2,20,0.00
2013-4-15,62,52,41,51,45,37,89,78,51,29.97,29.61,24,3,24,0.00
2013-4-16,60,44,32,40,35,29,88,71,47,30.29,29.95,12,1,12,0.00
2013-4-17,42,40,39,39,35,31,89,81,70,30.31,29.85,20,3,20,0.00
2013-4-18,58,47,39,55,44,34,90,88,79,29.85,29.37,28,2,28,0.00
2013-4-19,40,36,31,33,28,24,80,71,59,29.90,29.41,20,5,20,0.00
2013-4-20,48,36,26,25,22,18,74,59,38,30.42,29.90,11,2,11,0.00
2013-4-21,52,41,31,32,27,24,76,58,44,30.52,30.28,17,4,17,0.00
2013-4-22,70,53,38,42,35,28,72,53,35,30.29,30.02,17,2,17,0.00
2013-4-23,54,44,38,47,38,32,86,79,60,30.02,29.89,13,1,13,0.00
2013-4-24,54,43,33,33,29,26,81,60,35,30.05,29.94,13,1,13,0.00
2013-4-25,53,44,34,34,31,24,77,60,42,30.30,29.99,19,3,19,0.00
2013-4-26,68,52,32,47,37,24,77,58,45,30.31,30.14,28,4,28,0.00
2013-4-27,70,57,44,48,43,37,82,62,41,30.25,30.01,15,2,15,0.00
2013-4-28,73,58,49,51,45,38,78,64,45,30.01,29.79,41,0,41,0.00
2013-4-29,71,59,45,55,49,39,86,70,52,29.87,29.73,19,2,19,0.00
2013-4-30,86,72,62,60,56,53,80,59,33,29.89,29.71,57,6,57,0.00
2013-5-1,87,73,51,58,54,40,67,53,31,30.18,29.88,51,6,51,0.00
2013-5-2,60,49,40,49,40,34,85,72,55,30.24,30.16,16,1,16,0.00
2013-5-3,48,43,38,44,39,35,88,86,85,30.18,29.98,9,0,9,0.00
2013-5-4,74,58,45,54,47,41,87,69,46,30.04,29.97,45,1,45,0.00
2013-5-5,76,59,43,51,44,37,83,60,39,30.06,29.98,47,2,47,0.00
2013-5-6,79,61,44,49,42,36,79,52,29,30.07,29.96,45,2,45,0.00
2013-5-7,82,66,47,50,44,36,71,48,31,30.04,29.97,49,7,49,0.00
2013-5-8,83,64,44,52,45,37,81,54,30,30.04,29.94,51,5,51,0.00
2013-5-9,69,56,44,58,48,40,86,75,58,29.95,29.87,12,0,12,0.00
2013-5-10,50,46,41,44,41,36,88,85,80,29.98,29.83,8,0,8,0.00
2013-5-11,57,47,38,47,37,29,88,71,44,30.02,29.78,15,2,15,0.00
2013-5-12,58,46,37,34,30,24,69,55,38,30.10,30.01,14,1,14,0.00
2013-5-13,66,48,32,37,32,26,82,57,31,30.18,29.96,18,1,18,0.00
2013-5-14,92,68,47,61,50,34,71,53,34,29.96,29.56,50,5,50,0.00
2013-5-15,86,72,55,60,50,41,68,48,30,29.84,29.56,46,6,46,0.00
2013-5-16,83,65,50,55,46,37,77,52,34,29.99,29.82,49,6,49,0.00
2013-5-17,66,57,51,50,44,36,80,62,50,30.10,29.98,14,1,14,0.00
2013-5-18,81,65,52,62,53,43,77,66,52,30.08,29.92,46,3,46,0.00
2013-5-19,86,70,54,67,59,49,85,69,51,29.95,29.67,48,6,48,0.00
2013-5-20,86,74,64,63,60,56,85,63,43,29.74,29.65,39,5,39,0.06
2013-5-21,80,69,60,64,59,53,85,70,49,29.69,29.61,31,4,31,0.11
2013-5-22,68,61,54,63,56,50,87,85,77,29.75,29.61,6,0,6,0.67
2013-5-23,59,51,40,50,45,34,88,80,66,30.31,29.75,11,1,11,0.10
2013-5-24,68,48,33,45,36,28,86,65,40,30.44,30.29,11,0,11,0.00
2013-5-25,61,52,42,42,38,32,79,60,44,30.39,30.26,10,0,10,0.00
2013-5-26,68,53,38,48,41,31,82,65,43,30.30,30.15,16,1,16,0.02
2013-5-27,54,52,50,50,46,42,88,82,66,30.16,29.89,12,1,12,0.06
2013-5-28,73,61,51,66,57,47,90,86,78,29.89,29.67,15,0,15,0.84
2013-5-29,84,71,63,68,63,59,89,76,58,29.89,29.74,41,4,41,0.00
2013-5-30,74,72,66,66,63,61,83,75,73,29.87,29.82,29,2,29,0.00
2013-5-31,76,70,63,67,62,59,87,75,62,29.80,29.68,42,5,42,0.02
2013-6-1,77,70,63,64,62,57,86,77,63,29.69,29.60,45,4,45,0.00
2013-6-2,63,56,48,57,48,43,84,75,63,30.02,29.66,6,0,6,0.00
2013-6-3,74,58,43,52,44,39,87,64,41,30.09,29.98,46,1,46,0.00
2013-6-4,72,59,48,49,45,40,81,61,44,30.16,30.06,42,0,42,0.00
2013-6-5,65,58,52,52,48,43,83,71,59,30.13,29.96,10,0,10,0.00
2013-6-6,60,56,52,53,50,47,84,80,73,29.97,29.90,10,0,10,0.00
2013-6-7,75,61,50,53,47,42,86,64,38,29.97,29.89,46,3,46,0.00
2013-6-8,78,61,46,54,48,40,85,64,41,30.02,29.91,49,6,49,0.00
2013-6-9,78,67,54,61,55,47,79,66,49,30.01,29.80,45,4,45,0.00
2013-6-10,80,69,60,67,61,54,85,76,58,29.84,29.74,51,7,51,0.00
2013-6-11,86,72,57,66,61,53,87,70,50,29.90,29.77,45,8,45,0.00
2013-6-12,78,69,63,66,62,58,87,79,65,29.87,29.62,37,2,37,0.00
2013-6-13,83,67,57,63,57,49,87,71,51,30.05,29.63,42,5,42,0.00
2013-6-14,80,64,50,59,52,45,85,66,48,30.13,29.99,40,4,40,0.00
2013-6-15,80,64,55,68,57,47,86,77,67,30.08,29.81,40,2,40,0.65
2013-6-16,87,76,62,68,61,54,87,60,41,29.89,29.84,41,2,41,0.00
2013-6-17,90,71,58,65,58,50,85,65,40,29.96,29.82,43,6,43,0.00
2013-6-18,75,62,52,58,50,41,81,66,47,30.08,29.94,34,2,34,0.00
2013-6-19,80,63,47,54,48,41,83,60,39,30.15,30.06,40,4,40,0.00
2013-6-20,89,70,52,63,55,46,81,62,38,30.14,30.03,45,7,45,0.00
2013-6-21,75,69,62,67,62,54,86,78,64,30.10,29.87,23,1,23,1.18
2013-6-22,79,71,66,72,66,62,88,83,77,30.11,29.92,31,1,31,1.10
2013-6-23,88,75,64,74,67,60,87,75,61,30.00,29.86,40,6,40,0.00
2013-6-24,80,73,68,69,66,64,85,79,66,30.02,29.80,38,6,38,0.02
2013-6-25,81,72,65,73,66,61,88,84,74,29.94,29.78,43,8,43,1.34
2013-6-26,79,71,67,70,66,64,90,84,73,29.83,29.70,43,8,43,0.41
2013-6-27,88,73,65,74,67,62,91,82,55,29.77,29.67,48,7,48,0.65
2013-6-28,79,70,64,66,63,59,90,78,62,29.71,29.59,43,6,43,0.02
2013-6-29,77,66,62,63,60,55,89,79,57,29.80,29.60,49,2,49,0.02
2013-6-30,82,68,60,62,54,48,78,63,41,30.01,29.80,46,6,46,0.00
2013-7-1,76,63,57,57,50,46,73,64,48,30.08,30.00,33,1,33,0.00
2013-7-2,76,63,56,55,52,48,81,67,45,30.10,30.05,38,1,38,0.00
2013-7-3,68,64,60,62,58,52,86,80,73,30.06,30.00,5,0,5,0.00
2013-7-4,84,72,58,65,60,54,88,69,43,30.08,29.99,39,7,39,0.00
2013-7-5,87,74,62,67,62,57,86,67,48,30.05,29.98,39,6,39,0.00
2013-7-6,88,75,60,67,62,56,88,67,44,30.04,29.94,38,5,38,0.00
2013-7-7,87,78,68,72,68,63,86,73,57,29.97,29.90,43,8,43,0.00
2013-7-8,87,77,70,76,70,66,88,80,68,29.97,29.89,37,5,37,1.00
2013-7-9,82,74,68,74,69,65,90,86,74,29.98,29.81,43,4,43,0.53
2013-7-10,81,74,61,72,64,55,87,72,52,30.00,29.81,38,9,38,0.00
2013-7-11,84,69,56,62,57,52,86,67,47,30.09,29.99,38,7,38,0.00
2013-7-12,86,69,54,61,55,49,85,64,43,30.15,30.05,43,6,43,0.00
2013-7-13,86,71,57,63,58,51,84,65,44,30.15,30.07,38,7,38,0.00
2013-7-14,89,75,62,70,64,56,83,69,51,30.21,30.13,39,8,39,0.00
2013-7-15,89,78,66,75,69,60,84,73,60,30.25,30.20,46,8,46,0.00
2013-7-16,91,81,70,76,71,65,84,73,59,30.27,30.21,45,11,45,0.00
2013-7-17,93,82,73,76,72,67,83,70,54,30.28,30.14,44,6,44,0.00
2013-7-18,94,82,71,76,70,65,83,68,53,30.16,29.90,47,7,47,0.00
2013-7-19,92,83,75,74,70,65,77,66,55,29.91,29.73,47,9,47,0.00
2013-7-20,86,73,65,66,62,56,80,69,51,29.95,29.80,37,6,37,0.00
2013-7-21,83,69,61,69,60,55,84,75,61,29.96,29.82,39,5,39,2.57
2013-7-22,86,74,62,70,64,57,85,73,55,29.87,29.67,41,7,41,0.00
2013-7-23,79,69,58,62,58,51,81,69,53,29.98,29.67,36,4,36,0.04
2013-7-24,76,63,52,56,52,46,82,69,49,30.05,29.98,40,3,40,0.00
2013-7-25,79,66,52,61,55,47,82,68,54,30.08,29.94,46,3,46,0.00
2013-7-26,70,66,59,63,59,53,82,78,67,29.95,29.82,9,1,9,0.37
2013-7-27,61,57,53,53,49,46,82,75,65,29.91,29.84,9,1,9,0.02
2013-7-28,68,58,51,55,50,45,81,74,62,29.98,29.82,11,0,11,0.00
2013-7-29,77,64,54,60,54,48,80,71,54,30.16,29.98,42,4,42,0.00
2013-7-30,74,64,55,63,56,49,82,76,63,30.17,30.05,32,1,32,0.26
2013-7-31,76,65,60,66,59,54,82,80,71,30.05,29.91,44,1,44,1.23
2013-8-1,79,66,58,62,56,52,82,74,51,29.96,29.92,39,2,39,0.00
2013-8-2,78,71,64,66,62,57,79,75,65,29.92,29.82,39,6,39,0.02
2013-8-3,77,66,54,59,55,48,79,68,53,30.09,29.92,0,0,0,0.00
2013-8-4,76,64,53,60,54,47,79,70,54,30.19,30.09,41,1,41,0.00
2013-8-5,72,64,56,61,56,49,78,75,67,30.11,29.85,31,1,31,0.00
2013-8-6,83,71,62,69,62,55,79,74,64,29.85,29.77,47,7,47,0.00
2013-8-7,86,75,64,70,65,57,77,70,55,29.94,29.73,0,0,0,0.00
2013-8-8,79,67,60,60,55,52,78,66,47,30.03,29.93,0,0,0,0.00
2013-8-9,80,68,55,65,58,48,78,71,60,30.03,29.94,0,0,0,0.00
2013-8-10,78,66,55,62,56,48,78,70,54,30.12,30.03,0,0,0,0.00
2013-8-11,65,59,54,57,52,47,78,77,76,30.12,30.08,0,0,0,0.06
2013-8-12,82,70,62,70,62,55,79,75,66,29.95,29.85,42,2,42,0.23
2013-8-13,73,62,50,56,51,44,79,68,52,30.15,29.94,26,0,26,0.00
2013-8-14,74,60,48,56,50,42,79,69,52,30.21,30.11,43,1,43,0.00
2013-8-15,81,65,54,60,54,47,78,69,47,30.14,30.05,41,2,41,0.00
2013-8-16,82,66,54,63,55,47,79,69,49,30.18,30.10,45,4,45,0.00
2013-8-17,82,66,51,63,54,45,79,68,47,30.24,30.14,44,5,44,0.00
2013-8-18,82,66,51,62,55,45,79,68,51,30.21,30.07,42,3,42,0.00
2013-8-19,80,68,55,65,58,48,78,70,55,30.10,29.99,43,4,43,0.00
2013-8-20,85,72,60,68,61,53,78,69,55,30.06,29.99,42,6,42,0.00
2013-8-21,87,77,66,70,66,58,77,68,56,30.03,29.90,46,6,46,0.00
2013-8-22,77,70,65,67,62,58,78,76,70,30.11,29.97,28,0,28,0.51
2013-8-23,83,68,56,64,57,49,79,69,48,30.16,30.10,43,2,43,0.00
2013-8-24,85,69,54,66,58,47,79,69,51,30.24,30.13,41,2,41,0.00
2013-8-25,89,77,67,70,64,57,76,65,49,30.18,30.07,46,5,46,0.00
2013-8-26,88,79,71,74,68,62,74,70,62,30.10,29.94,47,7,47,0.00
2013-8-27,94,83,73,75,71,66,77,68,53,29.95,29.79,48,6,48,0.00
2013-8-28,87,76,67,73,67,60,78,73,62,30.03,29.81,44,4,44,0.00
2013-8-29,90,74,62,71,64,55,79,71,53,30.07,29.96,44,4,44,0.00
2013-8-30,95,74,65,77,65,58,78,74,51,29.96,29.74,41,2,41,0.71
2013-8-31,77,68,63,67,61,56,79,77,73,29.86,29.77,40,2,40,0.00
2013-9-1,84,69,60,72,61,54,79,76,67,29.82,29.69,43,3,43,0.10
2013-9-2,72,63,54,61,55,48,79,75,66,29.98,29.80,19,0,19,0.02
2013-9-3,76,60,49,58,51,43,80,73,52,30.08,29.98,48,1,48,0.00
2013-9-4,83,65,51,66,56,45,79,73,56,30.09,30.01,51,3,51,0.00
2013-9-5,75,64,52,58,53,45,78,68,52,30.25,30.09,43,2,43,0.00
2013-9-6,85,67,48,68,56,42,79,71,57,30.22,29.95,46,4,46,0.00
2013-9-7,82,73,66,70,64,58,77,73,63,29.96,29.87,42,4,42,0.00
2013-9-8,71,68,65,63,60,58,77,77,75,30.03,29.94,17,1,17,0.00
2013-9-9,91,78,67,76,68,59,78,72,61,29.96,29.77,43,8,43,0.00
2013-9-10,94,83,74,70,66,63,69,57,40,29.94,29.80,44,8,44,0.00
2013-9-11,81,74,65,68,64,58,77,71,60,30.07,29.92,39,4,39,0.00
2013-9-12,76,66,58,63,56,49,79,71,55,30.10,29.94,37,2,37,0.04
2013-9-13,69,56,47,49,44,40,78,65,46,30.19,30.10,0,0,0,0.00
2013-9-14,71,56,42,50,44,36,80,65,47,30.17,30.00,20,0,20,0.00
2013-9-15,59,55,53,51,48,45,79,76,61,30.20,29.98,5,0,5,0.41
2013-9-16,67,53,44,51,44,38,80,72,54,30.36,30.20,21,0,21,0.00
2013-9-17,68,55,42,54,47,36,80,73,59,30.33,30.10,17,0,17,0.00
2013-9-18,78,67,57,66,58,50,79,75,67,30.10,29.87,39,1,39,0.06
2013-9-19,82,72,66,72,64,59,78,76,71,29.91,29.71,37,2,37,1.29
2013-9-20,72,66,57,63,58,50,79,76,68,29.79,29.69,24,1,24,0.00
2013-9-21,59,54,48,50,46,42,80,76,67,29.93,29.78,5,0,5,0.00
2013-9-22,68,52,42,50,43,37,81,72,50,30.06,29.93,20,0,20,0.00
2013-9-23,68,53,43,53,45,37,81,74,57,30.12,30.02,18,0,18,0.00
2013-9-24,72,56,46,56,47,40,80,73,55,30.06,29.93,19,1,19,0.00
2013-9-25,73,56,46,57,47,40,80,74,55,29.99,29.92,43,1,43,0.00
2013-9-26,78,58,45,59,48,39,80,70,44,30.08,29.97,44,1,44,0.00
2013-9-27,81,61,46,60,50,40,80,69,46,30.15,30.03,37,1,37,0.00
2013-9-28,81,65,52,62,55,46,80,70,51,30.05,29.82,35,2,35,0.16
2013-9-29,74,57,47,54,47,41,80,70,42,30.04,29.92,45,0,45,0.00
2013-9-30,73,56,42,52,45,36,81,68,47,29.99,29.82,37,1,37,0.02
2013-10-1,81,66,50,64,56,43,79,72,54,29.93,29.80,32,2,32,0.00
2013-10-2,82,61,48,56,48,42,80,64,36,30.10,29.93,45,2,45,0.00
2013-10-3,74,65,55,66,58,47,79,78,73,29.98,29.80,26,0,26,0.16
2013-10-4,66,63,61,59,57,54,80,79,78,29.98,29.85,18,1,18,0.17
2013-10-5,72,65,62,66,59,56,80,80,78,29.93,29.70,24,0,24,0.73
2013-10-6,63,53,46,57,44,40,80,73,57,29.74,29.64,10,1,24,0.08
2013-10-7,68,52,45,51,44,39,80,73,53,30.07,29.69,6,1,6,0.00
2013-10-8,78,56,40,55,45,35,81,68,41,30.16,30.05,42,1,42,0.00
2013-10-9,75,57,45,54,46,39,80,67,39,30.22,30.11,17,1,17,0.00
2013-10-10,75,56,43,57,46,37,80,70,48,30.16,30.02,7,0,7,0.00
2013-10-11,75,60,49,59,50,42,80,71,53,30.05,29.92,12,1,12,0.00
2013-10-12,67,59,47,59,51,40,78,74,58,30.14,29.90,102,1,102,0.23
2013-10-13,67,48,39,46,39,33,81,71,46,30.39,30.14,13,0,13,0.00
2013-10-14,65,47,34,49,38,29,81,73,55,30.41,30.13,13,1,13,0.00
2013-10-15,61,53,45,54,47,39,80,79,77,30.13,29.72,8,1,8,0.12
2013-10-16,54,49,45,48,43,39,80,80,78,29.91,29.77,11,1,11,0.04
2013-10-17,49,46,39,43,40,34,81,80,79,29.90,29.80,3,0,3,0.16
2013-10-18,48,42,36,41,36,31,82,79,76,29.93,29.80,8,0,8,0.00
2013-10-19,52,43,37,39,35,32,82,74,56,29.90,29.71,10,1,10,0.00
2013-10-20,52,44,34,44,37,28,81,77,65,29.85,29.71,8,0,8,0.37
2013-10-21,48,41,32,42,32,23,80,71,61,29.93,29.74,10,1,10,0.00
2013-10-22,46,35,28,33,27,22,80,72,59,29.97,29.87,7,0,7,0.00
2013-10-23,43,36,28,31,27,23,81,71,53,30.00,29.91,6,1,6,0.00
2013-10-24,44,36,30,30,27,24,78,68,57,30.26,29.98,6,1,6,0.00
2013-10-25,54,39,26,33,26,20,80,61,42,30.37,29.93,24,3,24,0.00
2013-10-26,53,46,38,37,30,26,66,55,44,30.05,29.78,17,3,17,0.00
2013-10-27,56,40,28,34,28,22,80,63,40,30.05,29.87,16,2,16,0.00
2013-10-28,45,40,33,36,32,26,79,71,65,30.39,30.03,13,0,13,0.00
2013-10-29,60,44,35,45,36,28,80,75,59,30.37,30.12,8,0,8,0.00
2013-10-30,58,50,42,51,44,37,80,79,78,30.12,29.72,11,0,11,0.00
2013-10-31,61,56,44,55,50,38,80,80,79,29.72,29.21,0,0,0,0.00
2013-11-1,46,43,41,40,38,35,81,80,79,29.71,29.31,3,0,3,0.00
2013-11-2,46,40,36,39,34,31,82,81,77,30.12,29.71,6,0,6,0.00
2013-11-3,56,42,29,41,34,24,83,74,50,30.27,30.12,15,2,15,0.00
2013-11-4,56,49,43,43,39,36,78,70,57,30.23,30.03,20,5,20,0.00
2013-11-5,55,51,47,47,44,41,80,78,73,30.23,29.88,14,3,19,0.00
2013-11-6,55,44,30,49,38,25,81,80,76,30.14,29.72,21,3,21,0.00
2013-11-7,45,34,26,34,28,21,82,77,63,30.20,30.08,9,1,9,0.00
2013-11-8,46,37,25,34,29,20,82,73,61,30.29,29.83,12,2,12,0.00
2013-11-9,55,47,40,41,36,27,74,64,55,30.04,29.75,20,5,20,0.00
2013-11-10,53,43,36,33,29,26,69,60,43,30.29,30.04,11,3,11,0.00
2013-11-11,44,34,21,33,26,15,81,73,63,30.52,30.03,11,2,11,0.00
2013-11-12,38,25,18,22,16,12,81,69,48,30.69,30.51,9,2,9,0.00
2013-11-13,44,30,18,21,16,11,76,58,36,30.55,30.08,23,5,23,0.00
2013-11-14,47,39,32,30,24,18,66,57,49,30.08,29.87,24,4,24,0.00
2013-11-15,58,43,37,36,30,26,76,60,44,29.94,29.85,12,2,12,0.00
2013-11-16,58,48,34,52,42,28,81,79,75,29.90,29.50,21,5,21,0.00
2013-11-17,65,52,39,57,46,33,81,79,74,29.65,29.03,22,4,22,0.00
2013-11-18,40,34,27,33,26,20,78,72,60,30.24,29.65,18,4,18,0.00
2013-11-19,45,31,20,30,23,15,82,74,53,30.36,30.23,7,1,7,0.00
2013-11-20,44,37,30,32,28,25,81,73,53,30.26,30.09,19,4,19,0.00
2013-11-21,46,41,37,39,35,31,81,80,78,30.21,30.09,5,0,5,0.00
2013-11-22,41,33,24,34,26,17,82,75,60,30.44,30.20,11,2,11,0.00
2013-11-23,24,20,12,17,9,3,73,64,54,30.70,30.39,13,4,13,0.00
2013-11-24,29,18,8,9,6,1,76,60,42,30.68,30.28,18,3,18,0.00
2013-11-25,29,26,20,23,18,8,81,72,54,30.29,30.03,20,5,20,0.00
2013-11-26,31,26,13,25,18,4,80,71,59,30.18,30.00,11,3,11,0.00
2013-11-27,32,18,8,17,9,2,77,66,52,30.24,30.12,9,2,9,0.00
2013-11-28,35,23,12,20,13,6,75,66,53,30.50,30.16,10,1,10,0.00
2013-11-29,36,22,7,21,14,2,81,71,53,30.62,30.35,7,1,7,0.00
2013-11-30,49,34,26,34,25,20,78,69,55,30.35,29.98,17,2,17,0.00
2013-12-1,46,33,26,31,24,19,81,72,54,30.12,29.97,5,0,5,0.00
2013-12-2,42,31,20,33,25,15,82,76,65,29.97,29.75,10,1,10,0.00
2013-12-3,40,37,33,35,32,28,82,82,81,29.76,29.67,8,1,8,0.00
2013-12-4,50,42,37,45,37,31,83,82,78,29.74,29.45,22,2,22,0.00
2013-12-5,36,25,16,31,16,8,81,71,61,30.24,29.60,14,4,14,0.00
2013-12-6,22,13,8,10,5,1,75,70,59,30.54,30.22,14,2,14,0.00
2013-12-7,23,9,2,9,1,-4,76,68,52,30.67,30.53,9,1,9,0.00
2013-12-8,24,11,5,19,4,-1,82,73,67,30.60,29.92,7,0,7,0.00
2013-12-9,24,13,-4,19,6,-11,83,72,57,30.18,29.89,17,2,17,0.00
2013-12-10,22,8,-7,12,0,-14,79,70,56,30.26,29.94,17,3,17,0.00
2013-12-11,16,8,-8,9,-1,-16,79,67,52,30.54,30.24,10,2,10,0.00
2013-12-12,20,8,-6,9,0,-13,74,68,58,30.52,30.17,14,3,14,0.00
2013-12-13,30,21,12,21,15,5,81,76,68,30.20,30.12,9,1,9,0.00
2013-12-14,30,27,25,24,22,19,82,80,78,30.14,29.96,12,3,12,0.00
2013-12-15,20,12,5,9,2,-5,76,65,53,30.13,29.92,12,3,12,0.00
2013-12-16,18,9,-3,9,1,-11,79,69,55,30.17,30.00,9,1,9,0.00
2013-12-17,38,25,14,27,17,9,82,73,61,30.05,29.87,11,2,11,0.00
2013-12-18,35,24,9,24,14,2,77,66,46,30.12,29.77,20,4,20,0.00
2013-12-19,34,30,21,28,23,16,82,78,72,29.95,29.78,11,1,11,0.00
2013-12-20,32,28,25,27,24,20,83,82,82,29.86,29.76,8,1,8,0.00
2013-12-21,32,28,24,27,23,20,83,83,82,29.87,29.64,10,0,10,0.00
2013-12-22,32,26,20,26,21,16,83,81,77,30.10,29.64,7,0,7,0.00
2013-12-23,20,10,-1,16,5,-7,83,79,75,30.41,30.09,3,0,3,0.00
2013-12-24,18,5,-6,9,-1,-11,79,75,64,30.52,30.32,0,0,0,0.00
2013-12-25,23,20,11,18,15,6,82,81,79,30.31,30.05,12,2,12,0.00
2013-12-26,26,20,10,20,15,5,82,80,76,30.25,30.06,8,1,8,0.00
2013-12-27,38,28,14,30,22,9,83,78,70,30.26,30.00,18,2,18,0.00
2013-12-28,46,37,25,34,29,20,82,73,60,30.05,29.73,17,4,17,0.00
2013-12-29,38,22,0,29,15,-7,81,74,68,30.22,29.72,11,4,11,0.00
2013-12-30,8,0,-10,-4,-8,-16,74,67,57,30.33,30.17,9,0,9,0.00
2013-12-31,8,4,-4,2,-3,-10,78,75,70,30.35,30.17,7,0,7,0.00
2014-1-1,18,10,4,13,4,-4,79,76,70,30.34,30.24,3,0,3,0.00
2014-1-2,21,8,-5,9,1,-11,78,72,56,30.42,30.21,9,2,9,0.00